631  
ASUS46 KPQR 210710  
RWROR  
 
OREGON REGIONAL WEATHER ROUNDUP  
NATIONAL WEATHER SERVICE PORTLAND OR  
1200 AM PDT SAT SEP 21 2019  
 
NOTE: "FAIR" INDICATES FEW OR NO CLOUDS BELOW 12,000 FEET WITH  
NO SIGNIFICANT WEATHER AND/OR S TO VISIBILITY
.  
 
ORZ001>013-210800-  
NORTHWEST OREGON  
 
 
CITY SKY/WX TMP DP RH WIND PRES REMARKS
 
ASTORIA PTCLDY 60 58 92 CALM 30.15R  
TILLAMOOK PTCLDY 57 55 94 CALM 30.17S  
NEWPORT CLOUDY 59 59 100 CALM 30.19R  
PORTLAND MOCLDY 61 56 83 CALM 30.15R  
VANCOUVER WA PTCLDY 60 55 83 CALM 30.14S  
SCAPPOOSE CLEAR 56 54 93 N3 30.14S  
HILLSBORO CLEAR 55 53 93 CALM 30.15R  
AURORA CLEAR 60 55 83 NE3 30.15S  
MCMINNVILLE CLEAR 57 54 89 W3 30.14S  
SALEM CLOUDY 58 54 86 CALM 30.14R  
CORVALLIS CLEAR 57 55 93 W5 30.16R  
EUGENE CLEAR 57 54 89 S3 30.16R  
CRESWELL CLEAR 54 52 94 CALM 30.15R FOG  

 
 
ORZ021-028-210800-  
SOUTHWEST OREGON  
 
 
CITY SKY/WX TMP DP RH WIND PRES REMARKS
 
NORTH BEND CLEAR 58 57 97 N3 30.16S  
BROOKINGS CLEAR 67 49 52 N6 30.08R  
ROSEBURG CLEAR 57 54 89 CALM 30.14R  
SEXTON SUMMIT CLEAR 49 47 93 N10 30.17S  
GRANTS PASS FAIR 52 48 87 CALM 30.17R  
MEDFORD CLEAR 56 49 77 S3 30.13S  

 
 
ORZ014>016-041-210800-  
COLUMBIA GORGE  
 
 
CITY SKY/WX TMP DP RH WIND PRES REMARKS
 
TROUTDALE CLOUDY 61 56 83 CALM 30.14R  
HOOD RIVER PTCLDY 52 48 87 CALM 30.11S  
THE DALLES CLEAR 62 51 67 NW12 30.08R  

 
 
ORZ029>031-041-044-049-050-061>064-502-503-505>511-210800-  
EASTERN OREGON  
 
 
CITY SKY/WX TMP DP RH WIND PRES REMARKS
 
MADRAS CLEAR 45 41 87 S7 30.16S  
REDMOND PTCLDY 45 40 82 CALM 30.15S  
BEND PTCLDY 45 41 87 SW3 30.16R  
PRINEVILLE CLEAR 43 41 93 S5 30.16S  
KLAMATH FALLS CLEAR 46 41 82 NW5 30.16R  
LAKEVIEW CLEAR 42 40 92 NW9 30.18S  
HERMISTON CLEAR 62 48 60 SW14G23 30.05R  
PENDLETON CLEAR 55 46 71 SE5 30.08R  
JOHN DAY MOCLDY 49 47 95 E5 30.14S  
MEACHAM CLOUDY 40 38 93 CALM 30.13R  
LA GRANDE CLEAR 43 41 93 CALM 30.12R  
BAKER CITY MOCLDY 45 41 86 W6 30.12S  
BURNS CLEAR 43 40 89 W3 30.15S  
ROME N/A 51 45 79 S5 30.13R  
ONTARIO PTCLDY 55 44 66 W6 30.09R  

 
 
 
CLICK HERE TO GO TO PREVIOUS BULLETINS.

The Nexlab OR Page Main Text Page